FWI648 LFPO-MMUN

Flight info

Callsign FWI648
Flight time N/A
Altitude 36000
Route LGL UN502 JSY DCT LIZAD DCT LULOX/M085F360 DCT ELSOX DCT DINIM/M085F380 NATF MUSAK/M085F400 N278C GAYBL DCT 40N065W DCT DRYED DCT BEXUM M204 FLUPS DCT MAPYL/N0486F400 G437 DYNAH DCT UVA UR628 UHA UR522 MUPKI UB879 NOSAT
Aircraft A359/H-SDE2E3GHIJ3J4J5LM1ORWXY/LB1D1

Departure

Time 2026-05-06 12:06
Airport Paris-Orly Airport (LFPO)

Arrival

Time N/A
Airport Cancún International Airport (MMUN)
Time Latitude Longitude Altitude Speed Heading
2026-05-06 11:51 48.73004 2.37627 302 ft 4 kts 292°
2026-05-06 11:52 48.73004 2.37629 302 ft 4 kts 293°
2026-05-06 11:53 48.72992 2.37665 304 ft 4 kts 294°
2026-05-06 11:53 48.72982 2.37703 303 ft 4 kts 292°
2026-05-06 11:53 48.72971 2.37741 302 ft 4 kts 292°
2026-05-06 11:53 48.72961 2.37779 303 ft 4 kts 292°
2026-05-06 11:54 48.72951 2.37814 303 ft 4 kts 291°
2026-05-06 11:54 48.72946 2.37842 302 ft 4 kts 252°
2026-05-06 11:54 48.72944 2.37851 303 ft 4 kts 196°
2026-05-06 11:54 48.72968 2.37855 303 ft 4 kts 184°
2026-05-06 11:55 48.72992 2.37860 302 ft 2 kts 198°
2026-05-06 11:55 48.72972 2.37850 303 ft 5 kts 198°
2026-05-06 11:55 48.72956 2.37841 303 ft 0 kts 198°
2026-05-06 12:00 48.72937 2.37832 302 ft 5 kts 198°
2026-05-06 12:01 48.72892 2.37810 304 ft 9 kts 198°
2026-05-06 12:01 48.72820 2.37775 305 ft 13 kts 198°
2026-05-06 12:01 48.72732 2.37725 304 ft 14 kts 210°
2026-05-06 12:01 48.72678 2.37604 304 ft 15 kts 252°
2026-05-06 12:02 48.72647 2.37451 303 ft 16 kts 253°
2026-05-06 12:02 48.72614 2.37287 303 ft 17 kts 253°
2026-05-06 12:02 48.72579 2.37110 302 ft 18 kts 253°
2026-05-06 12:02 48.72547 2.36923 303 ft 19 kts 258°
2026-05-06 12:03 48.72513 2.36726 301 ft 20 kts 253°
2026-05-06 12:03 48.72475 2.36520 301 ft 21 kts 255°
2026-05-06 12:03 48.72437 2.36307 299 ft 21 kts 254°
2026-05-06 12:03 48.72396 2.36087 298 ft 22 kts 255°
2026-05-06 12:04 48.72354 2.35857 297 ft 23 kts 255°
2026-05-06 12:04 48.72294 2.35640 298 ft 23 kts 221°
2026-05-06 12:04 48.72144 2.35627 293 ft 22 kts 166°
2026-05-06 12:04 48.72052 2.35714 297 ft 15 kts 139°
2026-05-06 12:05 48.71977 2.35824 297 ft 13 kts 123°
2026-05-06 12:05 48.71961 2.35952 293 ft 13 kts 91°
2026-05-06 12:05 48.71982 2.36085 295 ft 15 kts 74°
2026-05-06 12:05 48.72049 2.36437 299 ft 63 kts 74°
2026-05-06 12:06 48.72221 2.37362 302 ft 119 kts 74°
2026-05-06 12:06 48.72498 2.38805 307 ft 166 kts 70°
2026-05-06 12:06 48.72886 2.40460 943 ft 156 kts 66°
2026-05-06 12:06 48.73180 2.41878 1753 ft 141 kts 69°
2026-05-06 12:07 48.73476 2.43416 1898 ft 161 kts 68°
2026-05-06 12:07 48.73797 2.45119 1998 ft 175 kts 72°
2026-05-06 12:07 48.74032 2.46981 2212 ft 185 kts 80°
2026-05-06 12:07 48.74113 2.48964 2504 ft 195 kts 84°
2026-05-06 12:08 48.74172 2.51076 2808 ft 205 kts 83°
2026-05-06 12:08 48.74245 2.53281 3017 ft 214 kts 82°
2026-05-06 12:08 48.74261 2.55591 3158 ft 225 kts 93°
2026-05-06 12:08 48.73659 2.57838 3220 ft 243 kts 128°
2026-05-06 12:09 48.72229 2.59215 3294 ft 256 kts 165°
2026-05-06 12:09 48.70442 2.59113 3379 ft 264 kts 201°
2026-05-06 12:09 48.68985 2.57483 3594 ft 263 kts 238°
2026-05-06 12:09 48.68356 2.54930 3946 ft 259 kts 265°
2026-05-06 12:10 48.68124 2.52209 4291 ft 263 kts 266°
2026-05-06 12:10 48.67836 2.49455 4585 ft 267 kts 263°
2026-05-06 12:10 48.67472 2.46691 4845 ft 269 kts 261°
2026-05-06 12:10 48.67066 2.43927 5073 ft 270 kts 261°
2026-05-06 12:11 48.66635 2.41180 5294 ft 272 kts 259°
2026-05-06 12:11 48.66028 2.38454 5548 ft 275 kts 252°
2026-05-06 12:11 48.65307 2.35761 5843 ft 276 kts 251°
2026-05-06 12:11 48.64572 2.33066 6162 ft 277 kts 251°
2026-05-06 12:12 48.63847 2.30397 6446 ft 278 kts 251°
2026-05-06 12:12 48.63131 2.27669 6703 ft 277 kts 254°
2026-05-06 12:12 48.62848 2.24834 6938 ft 272 kts 277°
2026-05-06 12:12 48.63082 2.22023 7216 ft 270 kts 282°
2026-05-06 12:13 48.63389 2.19201 7467 ft 271 kts 282°
2026-05-06 12:13 48.63686 2.16407 7713 ft 272 kts 281°
2026-05-06 12:13 48.63981 2.13574 7961 ft 273 kts 281°
2026-05-06 12:13 48.64272 2.10734 8238 ft 273 kts 281°
2026-05-06 12:14 48.64560 2.07891 8513 ft 273 kts 280°
2026-05-06 12:14 48.64848 2.05045 8761 ft 275 kts 280°
2026-05-06 12:14 48.65136 2.02180 9032 ft 275 kts 280°
2026-05-06 12:14 48.65419 1.99348 9295 ft 275 kts 279°
2026-05-06 12:15 48.65707 1.96467 9549 ft 276 kts 279°
2026-05-06 12:15 48.65994 1.93585 9782 ft 277 kts 279°
2026-05-06 12:15 48.66282 1.90682 9994 ft 279 kts 278°
2026-05-06 12:15 48.66570 1.87772 10088 ft 285 kts 278°
2026-05-06 12:16 48.66866 1.84763 10254 ft 296 kts 279°
2026-05-06 12:16 48.67178 1.81600 10487 ft 310 kts 278°
2026-05-06 12:16 48.67502 1.78299 10743 ft 324 kts 278°
2026-05-06 12:16 48.67840 1.74851 11005 ft 337 kts 278°
2026-05-06 12:17 48.68190 1.71274 11273 ft 349 kts 278°
2026-05-06 12:17 48.68544 1.67630 11699 ft 356 kts 278°
2026-05-06 12:17 48.68905 1.63899 12207 ft 360 kts 278°
2026-05-06 12:17 48.69271 1.60109 12743 ft 363 kts 278°
2026-05-06 12:18 48.69638 1.56305 13272 ft 366 kts 278°
2026-05-06 12:18 48.70001 1.52523 13788 ft 369 kts 278°
2026-05-06 12:18 48.70374 1.48660 14263 ft 372 kts 278°
2026-05-06 12:18 48.70742 1.44777 14702 ft 375 kts 278°
2026-05-06 12:19 48.71114 1.40830 15148 ft 378 kts 278°
2026-05-06 12:19 48.71486 1.36880 15579 ft 382 kts 278°
2026-05-06 12:19 48.71862 1.32867 16013 ft 385 kts 278°
2026-05-06 12:19 48.72240 1.28833 16462 ft 387 kts 278°
2026-05-06 12:20 48.72614 1.24817 16872 ft 391 kts 278°
2026-05-06 12:20 48.72997 1.20699 17320 ft 393 kts 278°
2026-05-06 12:20 48.73378 1.16582 17778 ft 396 kts 278°
2026-05-06 12:20 48.73632 1.13827 18060 ft 398 kts 278°
2026-05-06 12:21 48.74143 1.08266 18614 ft 402 kts 278°
2026-05-06 12:21 48.74529 1.04037 19000 ft 406 kts 278°
2026-05-06 12:21 48.74786 1.01224 19273 ft 407 kts 278°
2026-05-06 12:21 48.75299 0.95568 19847 ft 410 kts 278°
2026-05-06 12:22 48.75688 0.91256 20256 ft 413 kts 278°
2026-05-06 12:22 48.75947 0.88377 20520 ft 415 kts 278°
2026-05-06 12:22 48.76465 0.82602 21094 ft 418 kts 278°
2026-05-06 12:22 48.76728 0.79645 21371 ft 420 kts 278°
2026-05-06 12:23 48.77120 0.75238 21797 ft 423 kts 278°
2026-05-06 12:23 48.77513 0.70800 22238 ft 425 kts 278°
2026-05-06 12:23 48.77901 0.66390 22679 ft 428 kts 278°
2026-05-06 12:23 48.78295 0.61891 23132 ft 431 kts 278°
2026-05-06 12:24 48.78690 0.57376 23595 ft 433 kts 278°
2026-05-06 12:24 48.79163 0.52838 23986 ft 435 kts 283°
2026-05-06 12:24 48.79847 0.48350 24387 ft 437 kts 285°
2026-05-06 12:24 48.80617 0.43936 24768 ft 439 kts 287°
2026-05-06 12:25 48.81444 0.39464 25146 ft 442 kts 287°
2026-05-06 12:25 48.82288 0.34957 25524 ft 444 kts 287°
2026-05-06 12:25 48.83135 0.30412 25907 ft 446 kts 287°
2026-05-06 12:25 48.83964 0.25906 26296 ft 449 kts 287°
2026-05-06 12:26 48.84797 0.21315 26681 ft 451 kts 287°
2026-05-06 12:26 48.85624 0.16719 27047 ft 453 kts 286°
2026-05-06 12:26 48.86456 0.12061 27433 ft 456 kts 286°
2026-05-06 12:26 48.87253 0.07573 27788 ft 458 kts 286°
2026-05-06 12:27 48.88073 0.02940 28164 ft 460 kts 286°
2026-05-06 12:27 48.88906 -0.01772 28533 ft 462 kts 286°
2026-05-06 12:27 48.89743 -0.06517 28873 ft 465 kts 286°
2026-05-06 12:27 48.90581 -0.11276 29231 ft 467 kts 286°
2026-05-06 12:28 48.91421 -0.16062 29569 ft 469 kts 286°
2026-05-06 12:28 48.92266 -0.20882 29895 ft 471 kts 286°
2026-05-06 12:28 48.93098 -0.25648 30172 ft 473 kts 286°
2026-05-06 12:28 48.93941 -0.30515 30416 ft 475 kts 285°
2026-05-06 12:29 48.94770 -0.35404 30681 ft 477 kts 285°
2026-05-06 12:29 48.95593 -0.40315 30930 ft 479 kts 285°
2026-05-06 12:29 48.96407 -0.45192 31156 ft 481 kts 285°
2026-05-06 12:29 48.97231 -0.50140 31385 ft 483 kts 285°
2026-05-06 12:30 48.98056 -0.55089 31691 ft 482 kts 285°
2026-05-06 12:30 48.98882 -0.60049 32037 ft 481 kts 285°
2026-05-06 12:30 48.99704 -0.65000 32381 ft 480 kts 285°
2026-05-06 12:30 49.00521 -0.69929 32700 ft 479 kts 285°
2026-05-06 12:31 49.01324 -0.74788 32999 ft 478 kts 284°
2026-05-06 12:31 49.02134 -0.79698 33317 ft 477 kts 284°
2026-05-06 12:31 49.02941 -0.84606 33636 ft 476 kts 284°
2026-05-06 12:31 49.03745 -0.89513 33946 ft 475 kts 284°
2026-05-06 12:32 49.04544 -0.94398 34190 ft 475 kts 284°
2026-05-06 12:32 49.05342 -0.99297 34426 ft 474 kts 284°
2026-05-06 12:32 49.06137 -1.04188 34673 ft 473 kts 284°
2026-05-06 12:32 49.06915 -1.08995 34883 ft 473 kts 284°
2026-05-06 12:33 49.07710 -1.13920 35089 ft 473 kts 284°
2026-05-06 12:33 49.08486 -1.18729 35295 ft 473 kts 284°
2026-05-06 12:33 49.09275 -1.23631 35502 ft 473 kts 284°
2026-05-06 12:33 49.10066 -1.28510 35679 ft 473 kts 284°
2026-05-06 12:34 49.10857 -1.33387 35860 ft 473 kts 284°
2026-05-06 12:34 49.11638 -1.38214 35971 ft 475 kts 284°
2026-05-06 12:34 49.13231 -1.48116 35976 ft 481 kts 284°
2026-05-06 12:35 49.14814 -1.58032 35978 ft 480 kts 284°
2026-05-06 12:35 49.16380 -1.67910 35980 ft 480 kts 284°
2026-05-06 12:36 49.17950 -1.77867 35983 ft 481 kts 284°
2026-05-06 12:36 49.19500 -1.87760 35992 ft 481 kts 284°
2026-05-06 12:37 49.21057 -1.97758 35989 ft 482 kts 284°
2026-05-06 12:37 49.22603 -2.07691 35993 ft 482 kts 284°
2026-05-06 12:38 49.24293 -2.17611 35993 ft 482 kts 285°
2026-05-06 12:38 49.26033 -2.27540 35995 ft 481 kts 285°
2026-05-06 12:39 49.27733 -2.37408 35993 ft 481 kts 285°
2026-05-06 12:39 49.29416 -2.47342 35990 ft 480 kts 284°
2026-05-06 12:40 49.31081 -2.57255 35991 ft 480 kts 284°
2026-05-06 12:40 49.32727 -2.67115 35994 ft 480 kts 284°
2026-05-06 12:41 49.34380 -2.77064 35991 ft 479 kts 284°
2026-05-06 12:41 49.36009 -2.86921 35991 ft 479 kts 284°
2026-05-06 12:42 49.37643 -2.96868 35987 ft 479 kts 284°
2026-05-06 12:42 49.39253 -3.06727 35985 ft 479 kts 284°
2026-05-06 12:43 49.40866 -3.16665 35983 ft 478 kts 284°
2026-05-06 12:43 49.42468 -3.26594 35982 ft 478 kts 284°
2026-05-06 12:44 49.44052 -3.36470 35983 ft 478 kts 284°
2026-05-06 12:44 49.45637 -3.46412 35988 ft 478 kts 284°
2026-05-06 12:45 49.47210 -3.56336 35990 ft 478 kts 283°
2026-05-06 12:46 49.49554 -3.71240 35990 ft 477 kts 283°
2026-05-06 12:46 49.51098 -3.81132 35992 ft 477 kts 283°
2026-05-06 12:47 49.52641 -3.91073 35990 ft 476 kts 283°
2026-05-06 12:47 49.54162 -4.00941 35994 ft 475 kts 283°
2026-05-06 12:48 49.55676 -4.10817 35996 ft 475 kts 283°
2026-05-06 12:48 49.57187 -4.20743 35996 ft 476 kts 283°
2026-05-06 12:49 49.58702 -4.30684 35998 ft 476 kts 284°
2026-05-06 12:49 49.60738 -4.40408 35998 ft 476 kts 289°
2026-05-06 12:50 49.62928 -4.50008 36000 ft 476 kts 289°
2026-05-06 12:50 49.65150 -4.59662 36006 ft 476 kts 289°
2026-05-06 12:51 49.67338 -4.69237 36006 ft 476 kts 289°
2026-05-06 12:51 49.69531 -4.78909 36004 ft 475 kts 289°
2026-05-06 12:52 49.71698 -4.88520 36005 ft 475 kts 289°
2026-05-06 12:52 49.73869 -4.98193 36004 ft 475 kts 289°
2026-05-06 12:53 49.76018 -5.07812 35997 ft 475 kts 289°
2026-05-06 12:53 49.78171 -5.17495 35996 ft 475 kts 288°
2026-05-06 12:54 49.80314 -5.27175 35991 ft 475 kts 288°
2026-05-06 12:54 49.82434 -5.36797 35992 ft 474 kts 288°
2026-05-06 12:55 49.84560 -5.46489 35998 ft 474 kts 288°
2026-05-06 12:55 49.86679 -5.56198 36009 ft 474 kts 288°
2026-05-06 12:56 49.88770 -5.65819 36015 ft 474 kts 288°
2026-05-06 12:56 49.90864 -5.75504 36014 ft 473 kts 288°
2026-05-06 12:57 49.92955 -5.85220 36018 ft 473 kts 288°
2026-05-06 12:57 49.95025 -5.94881 36019 ft 473 kts 288°
2026-05-06 12:58 49.97083 -6.04537 36021 ft 473 kts 288°
2026-05-06 12:58 49.99143 -6.14244 36020 ft 472 kts 288°
2026-05-06 12:59 50.01197 -6.23972 36021 ft 472 kts 288°
2026-05-06 12:59 50.03228 -6.33636 36022 ft 472 kts 287°
2026-05-06 13:00 50.05262 -6.43362 36024 ft 472 kts 287°
2026-05-06 13:00 50.07290 -6.53103 36029 ft 472 kts 287°
2026-05-06 13:01 50.09295 -6.62786 36031 ft 471 kts 287°
2026-05-06 13:01 50.11290 -6.72464 36034 ft 471 kts 287°
2026-05-06 13:02 50.13290 -6.82211 36032 ft 471 kts 287°
2026-05-06 13:02 50.15279 -6.91960 36034 ft 471 kts 287°
2026-05-06 13:03 50.17250 -7.01664 36036 ft 471 kts 287°
2026-05-06 13:03 50.19222 -7.11422 36033 ft 471 kts 287°
2026-05-06 13:04 50.21177 -7.21142 36035 ft 471 kts 287°
2026-05-06 13:04 50.23136 -7.30932 36033 ft 471 kts 287°
2026-05-06 13:05 50.25089 -7.40743 36033 ft 471 kts 287°
2026-05-06 13:05 50.27021 -7.50494 36034 ft 472 kts 287°
2026-05-06 13:06 50.28956 -7.60310 36036 ft 472 kts 287°
2026-05-06 13:06 50.30877 -7.70108 36036 ft 472 kts 287°
2026-05-06 13:07 50.32782 -7.79871 36035 ft 472 kts 287°
2026-05-06 13:07 50.34693 -7.89720 36030 ft 472 kts 286°
2026-05-06 13:08 50.36545 -7.99550 36030 ft 472 kts 283°
2026-05-06 13:08 50.37965 -8.09614 36029 ft 472 kts 282°
2026-05-06 13:09 50.39074 -8.18013 36031 ft 472 kts 281°
2026-05-06 13:09 50.40597 -8.29764 36029 ft 473 kts 281°
2026-05-06 13:10 50.41684 -8.38177 36030 ft 473 kts 281°
2026-05-06 13:10 50.42990 -8.48320 36029 ft 473 kts 281°
2026-05-06 13:11 50.44282 -8.58412 36029 ft 473 kts 281°
2026-05-06 13:11 50.45573 -8.68568 36028 ft 474 kts 281°
2026-05-06 13:12 50.46848 -8.78680 36028 ft 474 kts 281°
2026-05-06 13:12 50.48122 -8.88857 36027 ft 474 kts 281°
2026-05-06 13:13 50.49380 -8.98991 36033 ft 474 kts 281°
2026-05-06 13:13 50.50638 -9.09194 36027 ft 475 kts 281°
2026-05-06 13:14 50.51880 -9.19345 36032 ft 475 kts 281°
2026-05-06 13:14 50.53124 -9.29587 36036 ft 476 kts 281°
2026-05-06 13:15 50.54351 -9.39772 36033 ft 476 kts 281°
2026-05-06 13:15 50.55578 -9.50036 36033 ft 477 kts 281°
2026-05-06 13:16 50.56790 -9.60256 36037 ft 477 kts 281°
2026-05-06 13:16 50.58002 -9.70557 36039 ft 477 kts 281°
2026-05-06 13:17 50.59197 -9.80803 36038 ft 478 kts 281°
2026-05-06 13:17 50.60390 -9.91105 36038 ft 478 kts 281°
2026-05-06 13:18 50.61568 -10.01362 36039 ft 478 kts 281°
2026-05-06 13:18 50.62746 -10.11705 36042 ft 479 kts 281°
2026-05-06 13:19 50.63915 -10.22055 36042 ft 479 kts 281°
2026-05-06 13:19 50.65068 -10.32347 36047 ft 479 kts 280°
2026-05-06 13:20 50.66220 -10.42722 36048 ft 479 kts 280°
2026-05-06 13:20 50.67356 -10.53028 36043 ft 480 kts 280°
2026-05-06 13:21 50.68490 -10.63412 36046 ft 480 kts 280°
2026-05-06 13:21 50.69615 -10.73804 36046 ft 480 kts 280°
2026-05-06 13:22 50.70732 -10.84220 36049 ft 480 kts 280°
2026-05-06 13:22 50.71833 -10.94562 36053 ft 481 kts 280°
2026-05-06 13:23 50.72932 -11.04990 36051 ft 481 kts 280°
2026-05-06 13:23 50.74023 -11.15432 36052 ft 481 kts 280°
2026-05-06 13:24 50.75100 -11.25831 36054 ft 482 kts 280°
2026-05-06 13:24 50.76168 -11.36232 36055 ft 482 kts 280°
2026-05-06 13:25 50.77232 -11.46702 36059 ft 482 kts 280°
2026-05-06 13:25 50.78290 -11.57204 36059 ft 482 kts 280°
2026-05-06 13:26 50.79330 -11.67618 36058 ft 483 kts 280°
2026-05-06 13:26 50.80371 -11.78146 36062 ft 483 kts 280°
2026-05-06 13:27 50.81400 -11.88657 36061 ft 484 kts 280°
2026-05-06 13:27 50.82417 -11.99147 36063 ft 484 kts 280°
2026-05-06 13:28 50.83433 -12.09719 36063 ft 485 kts 280°
2026-05-06 13:28 50.84431 -12.20215 36059 ft 485 kts 280°
2026-05-06 13:29 50.85429 -12.30815 36058 ft 485 kts 280°
2026-05-06 13:29 50.86411 -12.41348 36063 ft 486 kts 280°
2026-05-06 13:30 50.87391 -12.51971 36063 ft 486 kts 280°
2026-05-06 13:30 50.88355 -12.62530 36060 ft 487 kts 280°
2026-05-06 13:31 50.89316 -12.73166 36070 ft 487 kts 280°
2026-05-06 13:31 50.90270 -12.83828 36059 ft 488 kts 280°
2026-05-06 13:32 50.91209 -12.94442 36063 ft 488 kts 280°
2026-05-06 13:32 50.92145 -13.05127 36066 ft 489 kts 280°
2026-05-06 13:33 50.93064 -13.15748 36067 ft 489 kts 280°
2026-05-06 13:33 50.93983 -13.26470 36066 ft 489 kts 280°
2026-05-06 13:34 50.94884 -13.37103 36070 ft 490 kts 279°
2026-05-06 13:34 50.95783 -13.47840 36070 ft 490 kts 279°
2026-05-06 13:35 50.96671 -13.58558 36071 ft 490 kts 279°
2026-05-06 13:35 50.97546 -13.69244 36069 ft 490 kts 279°
2026-05-06 13:36 50.98412 -13.79944 36070 ft 490 kts 279°
2026-05-06 13:36 50.99273 -13.90710 36069 ft 490 kts 279°
2026-05-06 13:37 50.99958 -14.01452 36072 ft 492 kts 274°
2026-05-06 13:37 51.00083 -14.12361 36070 ft 493 kts 273°
2026-05-06 13:38 51.00105 -14.23253 36068 ft 493 kts 272°
2026-05-06 13:38 51.00108 -14.34089 36069 ft 493 kts 272°
2026-05-06 13:39 51.00111 -14.44997 36065 ft 493 kts 272°
2026-05-06 13:39 51.00110 -14.55880 36067 ft 492 kts 272°
2026-05-06 13:40 51.00100 -14.66698 36066 ft 492 kts 272°
2026-05-06 13:40 51.00080 -14.77611 36071 ft 492 kts 272°
2026-05-06 13:41 51.00050 -14.88406 36069 ft 492 kts 272°
2026-05-06 13:41 51.00132 -14.99265 36072 ft 489 kts 278°
2026-05-06 13:42 51.01177 -15.09845 36071 ft 486 kts 283°
2026-05-06 13:42 51.02448 -15.20402 36072 ft 485 kts 284°
2026-05-06 13:43 51.03731 -15.30852 36067 ft 484 kts 284°
2026-05-06 13:43 51.05003 -15.41397 36075 ft 484 kts 283°
2026-05-06 13:44 51.06242 -15.51854 36071 ft 483 kts 283°
2026-05-06 13:44 51.07474 -15.62359 36074 ft 482 kts 283°
2026-05-06 13:45 51.08695 -15.72856 36065 ft 482 kts 283°
2026-05-06 13:45 51.10501 -15.88528 36069 ft 481 kts 283°
2026-05-06 13:46 51.11698 -15.99029 36076 ft 481 kts 283°
2026-05-06 13:46 51.12876 -16.09450 36070 ft 480 kts 283°
2026-05-06 13:47 51.14049 -16.19913 36069 ft 480 kts 283°
2026-05-06 13:47 51.15215 -16.30403 36067 ft 479 kts 282°
2026-05-06 13:48 51.16362 -16.40806 36067 ft 479 kts 282°
2026-05-06 13:48 51.17507 -16.51283 36063 ft 478 kts 282°
2026-05-06 13:49 51.18634 -16.61688 36062 ft 478 kts 282°
2026-05-06 13:49 51.19754 -16.72125 36062 ft 478 kts 282°
2026-05-06 13:50 51.20869 -16.82598 36065 ft 478 kts 282°
2026-05-06 13:50 51.21969 -16.93017 36065 ft 478 kts 282°
2026-05-06 13:51 51.23065 -17.03499 36061 ft 478 kts 281°
2026-05-06 13:51 51.24148 -17.13953 36060 ft 477 kts 281°
2026-05-06 13:52 51.25219 -17.24389 36059 ft 477 kts 281°
2026-05-06 13:52 51.26285 -17.34865 36063 ft 477 kts 281°
2026-05-06 13:53 51.27336 -17.45292 36062 ft 477 kts 281°
2026-05-06 13:53 51.28381 -17.55756 36060 ft 477 kts 281°
2026-05-06 13:54 51.29423 -17.66287 36059 ft 477 kts 280°
2026-05-06 13:54 51.30445 -17.76714 36057 ft 477 kts 280°
2026-05-06 13:55 51.31462 -17.87195 36064 ft 477 kts 280°
2026-05-06 13:55 51.32468 -17.97653 36058 ft 477 kts 280°
2026-05-06 13:56 51.33462 -18.08094 36060 ft 477 kts 279°
2026-05-06 13:56 51.34452 -18.18606 36054 ft 477 kts 279°
2026-05-06 13:57 51.35429 -18.29070 36055 ft 477 kts 279°
2026-05-06 13:57 51.36400 -18.39586 36058 ft 477 kts 279°
2026-05-06 13:58 51.37200 -18.48323 36058 ft 476 kts 279°
2026-05-06 13:58 51.38152 -18.58813 36052 ft 476 kts 279°
2026-05-06 13:59 51.39095 -18.69322 36058 ft 476 kts 279°
2026-05-06 13:59 51.40022 -18.79757 36051 ft 475 kts 278°
2026-05-06 14:00 51.40944 -18.90251 36056 ft 475 kts 278°
2026-05-06 14:00 51.41854 -19.00714 36053 ft 475 kts 278°
2026-05-06 14:01 51.42753 -19.11151 36058 ft 475 kts 278°
2026-05-06 14:01 51.43642 -19.21597 36050 ft 474 kts 278°
2026-05-06 14:02 51.44524 -19.32081 36057 ft 474 kts 277°
2026-05-06 14:02 51.45401 -19.42602 36053 ft 474 kts 277°
2026-05-06 14:03 51.46260 -19.53031 36053 ft 474 kts 277°
2026-05-06 14:03 51.47114 -19.63527 36055 ft 474 kts 277°
2026-05-06 14:04 51.47962 -19.74053 36054 ft 474 kts 277°
2026-05-06 14:04 51.48792 -19.84486 36047 ft 474 kts 277°
2026-05-06 14:05 51.49621 -19.95015 36057 ft 474 kts 276°
2026-05-06 14:05 51.50387 -20.05554 36053 ft 474 kts 274°
2026-05-06 14:06 51.50803 -20.16079 36051 ft 475 kts 272°
2026-05-06 14:06 51.51147 -20.26635 36056 ft 475 kts 272°
2026-05-06 14:07 51.51533 -20.37225 36057 ft 475 kts 273°
2026-05-06 14:07 51.51942 -20.47816 36052 ft 475 kts 273°
2026-05-06 14:08 51.52349 -20.58404 36054 ft 475 kts 272°
2026-05-06 14:08 51.52743 -20.68938 36061 ft 475 kts 272°
2026-05-06 14:09 51.53127 -20.79539 36057 ft 474 kts 272°
2026-05-06 14:09 51.53502 -20.90146 36061 ft 475 kts 272°
2026-05-06 14:10 51.53865 -21.00676 36059 ft 475 kts 272°
2026-05-06 14:10 51.54222 -21.11314 36060 ft 475 kts 272°
2026-05-06 14:11 51.54568 -21.21918 36061 ft 475 kts 272°
2026-05-06 14:11 51.54904 -21.32506 36057 ft 476 kts 271°
2026-05-06 14:12 51.55232 -21.43140 36058 ft 476 kts 271°
2026-05-06 14:12 51.55548 -21.53721 36058 ft 477 kts 271°
2026-05-06 14:13 51.55858 -21.64404 36058 ft 477 kts 271°
2026-05-06 14:13 51.56156 -21.74999 36056 ft 477 kts 271°
2026-05-06 14:14 51.56447 -21.85692 36057 ft 478 kts 271°
2026-05-06 14:14 51.56727 -21.96336 36053 ft 478 kts 271°
2026-05-06 14:15 51.56999 -22.07046 36057 ft 478 kts 270°
2026-05-06 14:15 51.57260 -22.17731 36054 ft 478 kts 270°
2026-05-06 14:16 51.57513 -22.28443 36058 ft 478 kts 270°
2026-05-06 14:16 51.57754 -22.39101 36055 ft 479 kts 270°
2026-05-06 14:17 51.57987 -22.49801 36058 ft 478 kts 270°
2026-05-06 14:17 51.58209 -22.60488 36048 ft 479 kts 270°
2026-05-06 14:18 51.58421 -22.71147 36051 ft 479 kts 270°
2026-05-06 14:18 51.58625 -22.81876 36055 ft 479 kts 270°
2026-05-06 14:19 51.58818 -22.92541 36052 ft 479 kts 270°
2026-05-06 14:19 51.59003 -23.03276 36053 ft 478 kts 269°
2026-05-06 14:20 51.59176 -23.13906 36059 ft 478 kts 269°
2026-05-06 14:20 51.59341 -23.24650 36056 ft 478 kts 269°
2026-05-06 14:21 51.59494 -23.35292 36048 ft 478 kts 269°
2026-05-06 14:21 51.59639 -23.45974 36049 ft 477 kts 269°
2026-05-06 14:22 51.59774 -23.56664 36052 ft 477 kts 269°
2026-05-06 14:22 51.59899 -23.67270 36045 ft 476 kts 269°
2026-05-06 14:23 51.60014 -23.77926 36047 ft 475 kts 269°
2026-05-06 14:23 51.60119 -23.88500 36043 ft 475 kts 269°
2026-05-06 14:24 51.60215 -23.99162 36042 ft 475 kts 269°
2026-05-06 14:24 51.60301 -24.09751 36041 ft 475 kts 269°
2026-05-06 14:25 51.60378 -24.20430 36042 ft 475 kts 269°
2026-05-06 14:25 51.60444 -24.31016 36040 ft 474 kts 269°
2026-05-06 14:26 51.60501 -24.41568 36040 ft 474 kts 269°
2026-05-06 14:26 51.60549 -24.52204 36035 ft 474 kts 269°
2026-05-06 14:27 51.60587 -24.62785 36036 ft 474 kts 269°
2026-05-06 14:27 51.60616 -24.73421 36036 ft 474 kts 268°
2026-05-06 14:28 51.60635 -24.84024 36034 ft 474 kts 268°
2026-05-06 14:28 51.60645 -24.94602 36032 ft 474 kts 268°
2026-05-06 14:29 51.60645 -25.05223 36036 ft 475 kts 268°
2026-05-06 14:29 51.60635 -25.15825 36025 ft 475 kts 268°
2026-05-06 14:30 51.60616 -25.26487 36024 ft 475 kts 268°
2026-05-06 14:30 51.60587 -25.37072 36023 ft 475 kts 268°
2026-05-06 14:31 51.60549 -25.47722 36017 ft 476 kts 268°
2026-05-06 14:31 51.60501 -25.58386 36013 ft 475 kts 268°
2026-05-06 14:32 51.60443 -25.68978 36018 ft 475 kts 268°
2026-05-06 14:32 51.60376 -25.79567 36008 ft 475 kts 268°
2026-05-06 14:33 51.60299 -25.90231 36015 ft 474 kts 268°
2026-05-06 14:33 51.60213 -26.00851 36015 ft 474 kts 268°
2026-05-06 14:34 51.60118 -26.11421 36014 ft 474 kts 268°
2026-05-06 14:34 51.60012 -26.22051 36014 ft 474 kts 268°
2026-05-06 14:35 51.59898 -26.32591 36015 ft 474 kts 268°
2026-05-06 14:35 51.59774 -26.43200 36000 ft 474 kts 268°
2026-05-06 14:36 51.59641 -26.53744 35998 ft 473 kts 268°
2026-05-06 14:36 51.59497 -26.64362 35994 ft 473 kts 268°
2026-05-06 14:37 51.59345 -26.74903 35992 ft 473 kts 267°
2026-05-06 14:37 51.59183 -26.85523 35990 ft 474 kts 267°
2026-05-06 14:38 51.59012 -26.96069 35992 ft 474 kts 267°
2026-05-06 14:38 51.58830 -27.06692 35988 ft 474 kts 267°
2026-05-06 14:39 51.58640 -27.17255 35982 ft 474 kts 267°
2026-05-06 14:39 51.58439 -27.27865 35983 ft 474 kts 267°
2026-05-06 14:40 51.58229 -27.38436 35981 ft 474 kts 267°
2026-05-06 14:40 51.58009 -27.49058 35978 ft 474 kts 267°
2026-05-06 14:41 51.57780 -27.59667 35977 ft 475 kts 267°
2026-05-06 14:41 51.57541 -27.70241 35974 ft 475 kts 267°
2026-05-06 14:42 51.57292 -27.80901 35970 ft 475 kts 267°
2026-05-06 14:42 51.57035 -27.91448 35969 ft 475 kts 266°
2026-05-06 14:43 51.56766 -28.02097 35973 ft 475 kts 266°
2026-05-06 14:43 51.56489 -28.12679 35964 ft 475 kts 266°
2026-05-06 14:44 51.56202 -28.23315 35968 ft 476 kts 266°
2026-05-06 14:45 51.55753 -28.39223 35964 ft 476 kts 266°
2026-05-06 14:45 51.55442 -28.49849 35964 ft 476 kts 266°
2026-05-06 14:46 51.55121 -28.60442 35959 ft 476 kts 266°
2026-05-06 14:46 51.54846 -28.69313 35958 ft 476 kts 266°
2026-05-06 14:47 51.54506 -28.79974 35961 ft 476 kts 266°
2026-05-06 14:47 51.54158 -28.90569 35958 ft 477 kts 266°
2026-05-06 14:48 51.53799 -29.01224 35955 ft 477 kts 266°
2026-05-06 14:48 51.53433 -29.11806 35952 ft 477 kts 266°
2026-05-06 14:49 51.53054 -29.22470 35957 ft 477 kts 266°
2026-05-06 14:49 51.52665 -29.33132 35960 ft 477 kts 266°
2026-05-06 14:50 51.52269 -29.43732 35959 ft 478 kts 266°
2026-05-06 14:50 51.51861 -29.54398 35960 ft 478 kts 266°
2026-05-06 14:51 51.51446 -29.65008 35964 ft 478 kts 266°
2026-05-06 14:51 51.51018 -29.75683 35963 ft 478 kts 266°
2026-05-06 14:52 51.50584 -29.86279 35977 ft 477 kts 266°
2026-05-06 14:52 51.50137 -29.96938 35975 ft 477 kts 265°
2026-05-06 14:53 51.49791 -30.07523 35980 ft 476 kts 268°
2026-05-06 14:53 51.49761 -30.18139 35985 ft 475 kts 269°
2026-05-06 14:54 51.49745 -30.28767 35984 ft 475 kts 269°
2026-05-06 14:54 51.49668 -30.39305 36000 ft 475 kts 269°
2026-05-06 14:55 51.49553 -30.49931 35999 ft 475 kts 269°
2026-05-06 14:55 51.49425 -30.60487 36003 ft 475 kts 268°
2026-05-06 14:56 51.49288 -30.71102 36004 ft 475 kts 268°
2026-05-06 14:56 51.49145 -30.81655 36006 ft 475 kts 268°
2026-05-06 14:57 51.48992 -30.92260 36014 ft 475 kts 268°
2026-05-06 14:57 51.48828 -31.02865 36016 ft 475 kts 268°
2026-05-06 14:58 51.48655 -31.13438 36020 ft 475 kts 268°
2026-05-06 14:58 51.48473 -31.24075 36027 ft 475 kts 268°